Terminal Aerodrome Forecast
Issued by NWS Spokane, WA

Home | Current Version | Previous Version | Text Only | Print | Product List | Glossary On
Versions: 1 2 3 4 5 6 7 8 9 10 11 12 13 14 15 16 17 18 19 20 21 22 23 24 25 26
045
FTUS46 KOTX 092326
TAFEAT
TAF
KEAT 092326Z 1000/1024 28003KT P6SM SCT250
     FM101200 29003KT 5SM BR SCT006 BKN200
     FM101900 VRB02KT P6SM OVC150=

USA.gov is the U.S. government's official web portal to all federal, state and local government web resources and services.